sat.trackr.live / text

‹ back to catalog

ONEWEB-0395

NORAD 50475 · 2021-132G

PAYLOAD ACTIVE UNKNOWN

§ Identity

Operator
Country
UK
Launch date
2021-12-27
Launch site
TYMSC
Launch vehicle
Mass (kg)
RCS (m²)

Purposes: comms

External: N2YO · Heavens-Above · Gunter

§ Orbital elements

Epoch: 2026-09-20T01:55:43.218048Z

Period
109.80 min
Inclination
87.8968°
Eccentricity
0.0001643
Mean motion
13.11417994 rev/d
Perigee alt
1,216.4 km
Apogee alt
1,218.9 km
Semi-major
7,595.8 km
B*
-1.4769e-3
RAAN
2.2020°
Arg perigee
105.1119°
Mean anomaly
255.0191°
Rev number
22,815

§ Raw data

ONEWEB-03951 50475U 21132G   26263.08036132 -.00000511  00000+0 -14769-2 0  99992 50475  87.8968   2.2020 0001643 105.1119 255.0191 13.11417994228158

JSON: /api/v1/satellites/50475 · /tle

For live sub-satellite position, see the globe view (requires WebGL).

§ Visibility from observer

Set your observer location to see the next 7 days of passes ≥ 10°. The values pass through the URL so the page stays shareable.

No JS? Fill the form by hand. The geolocation button needs JavaScript.